Temp
73 73 73 72 71 72 73 75 75 74 73 73 74 73 71 70 69 68 67 68 67 67
73 73 73 73 73 73 74 76 75 74 73 73 73 73 71 70 69 68 67 67 67 67
75 74 74 73 72 72 73 75 75 74 74 73 73 72 71 69 69 67 67 67 66 67
74 75 74 74 74 73 72 73 74 74 74 73 72 72 70 69 68 67 66 65 65 66
73 74 75 75 75 75 74 74 74 74 74 73 72 72 70 68 69 67 66 65 64 65
74 74 75 75 76 75 75 74 74 74 73 73 72 71 71 69 68 67 67 65 64 65
73 74 76 76 76 75 75 75 74 74 74 73 73 72 71 69 68 67 66 65 65 65
76 77 76 76 76 76 75 75 75 74 74 75 73 72 70 69 68 66 65 65 65 66
75 75 75 76 76 76 75 74 74 74 74 73 73 70 69 70 67 66 65 64 64 65
74 74 75 75 75 75 74 74 74 74 73 73 72 67 68 69 66 64 65 65 65 66
74 74 74 75 75 75 75 74 74 74 74 73 71 66 66 67 65 64 66 66 65 66
76 75 74 74 74 75 74 74 74 74 74 73 71 64 65 66 66 66 65 65 66 63
75 75 74 74 74 74 74 74 74 74 74 71 73 63 64 65 67 64 63 62 63 64
75 73 73 73 74 74 73 73 73 73 73 73 72 66 62 63 66 64 62 61 61 61
MSLP
1015.41 1015.90 1016.35 1016.61 1016.95 1017.27 1017.41 1017.32 1017.36 1017.78 1018.16 1018.43 1018.49 1018.69 1019.07 1019.48 1019.77 1019.95 1020.26 1020.33 1020.43 1020.59
1014.92 1015.40 1015.75 1016.24 1016.65 1016.84 1016.98 1017.09 1017.21 1017.46 1017.89 1018.08 1018.32 1018.57 1018.95 1019.41 1019.77 1019.89 1020.09 1020.42 1020.53 1020.59
1014.22 1014.77 1015.23 1015.79 1016.23 1016.38 1016.55 1016.81 1016.96 1017.30 1017.61 1017.99 1018.18 1018.43 1018.91 1019.33 1019.59 1019.83 1019.91 1020.25 1020.46 1020.50
1014.25 1014.34 1014.80 1015.20 1015.60 1015.90 1016.25 1016.49 1016.67 1017.06 1017.37 1017.79 1018.05 1018.27 1018.70 1019.11 1019.41 1019.68 1019.79 1019.99 1020.20 1020.40
1013.85 1014.13 1014.29 1014.74 1014.97 1015.41 1015.79 1016.05 1016.38 1016.71 1017.04 1017.39 1017.53 1017.93 1018.41 1018.80 1019.16 1019.58 1019.81 1019.94 1020.07 1020.20
1013.21 1013.25 1013.57 1013.95 1014.31 1014.65 1015.09 1015.41 1015.84 1016.19 1016.45 1016.77 1017.03 1017.49 1017.83 1018.17 1018.43 1018.87 1019.23 1019.55 1019.76 1019.90
1012.25 1012.45 1012.92 1013.25 1013.61 1013.88 1014.09 1014.49 1014.93 1015.38 1015.64 1015.96 1016.46 1016.85 1017.38 1017.86 1018.22 1018.59 1018.87 1019.20 1019.33 1019.50
1011.57 1012.18 1012.53 1012.82 1012.97 1013.11 1013.40 1013.63 1013.87 1014.38 1014.76 1015.08 1015.59 1016.01 1016.49 1016.87 1017.39 1018.09 1018.56 1018.83 1019.05 1019.17
1011.31 1011.62 1011.89 1012.05 1012.20 1012.47 1012.67 1012.90 1013.23 1013.47 1013.78 1014.34 1014.75 1015.13 1015.69 1016.20 1016.96 1017.45 1018.11 1018.47 1018.69 1018.93
1011.34 1011.36 1011.40 1011.47 1011.53 1011.68 1011.87 1012.17 1012.29 1012.53 1013.05 1013.58 1014.00 1014.95 1016.35 1017.27 1016.83 1017.13 1017.43 1018.00 1018.29 1018.59
1011.04 1011.05 1010.89 1011.01 1010.98 1011.06 1011.33 1011.37 1011.40 1011.71 1012.09 1012.62 1013.03 1013.34 1014.40 1013.96 1014.20 1015.75 1016.52 1017.36 1017.73 1018.31
1010.65 1010.67 1010.63 1010.75 1010.69 1010.65 1010.85 1010.95 1011.07 1011.14 1011.47 1011.67 1012.41 1012.76 1013.45 1013.91 1014.96 1015.14 1015.67 1016.68 1017.57 1018.19
1010.24 1010.47 1010.47 1010.44 1010.49 1010.44 1010.50 1010.43 1010.60 1010.69 1010.75 1010.95 1011.36 1012.05 1012.84 1013.52 1014.16 1014.49 1015.37 1016.14 1017.04 1017.25
1010.22 1010.34 1010.45 1010.43 1010.28 1010.29 1010.33 1010.41 1010.43 1010.51 1010.61 1010.67 1010.91 1011.49 1012.23 1012.98 1013.27 1013.62 1014.63 1015.61 1016.17 1016.64
Wind_Speed
7 5 5 5 4 4 5 4 4 5 4 4 4 4 4 2 2 4 2 2 2 2
7 7 7 6 5 4 4 4 6 6 6 6 6 6 5 3 3 3 3 2 2 2
10 8 6 6 7 7 5 5 6 6 6 6 6 6 5 4 3 4 3 3 3 2
8 8 7 7 7 7 5 6 7 7 7 7 7 7 6 5 5 5 4 4 4 3
7 7 8 9 8 7 8 7 8 7 8 9 8 8 8 7 6 6 5 5 4 4
9 9 10 10 9 9 9 8 8 9 10 10 10 10 9 9 9 8 7 6 6 5
9 9 9 10 10 11 11 11 10 11 11 11 11 11 10 9 7 7 6 6 6 6
5 6 6 8 10 10 10 10 11 11 11 11 11 10 13 12 11 9 7 6 6 7
4 6 8 9 10 9 9 10 10 11 12 12 9 13 18 14 10 9 8 8 7 6
5 7 9 10 9 10 10 9 11 12 11 12 12 5 6 9 7 8 7 8 7 8
4 6 6 7 9 9 8 11 10 10 11 12 11 20 23 24 14 12 10 10 9 8
2 4 3 5 7 6 5 7 8 6 10 12 10 16 25 25 15 13 12 9 8 6
3 4 5 5 4 3 4 7 5 8 9 10 9 18 23 20 9 10 9 8 9 13
3 4 5 5 2 2 4 4 5 6 5 8 9 9 20 23 12 11 11 10 8 9
Wind_Direction
189 186 190 193 175 194 205 193 169 181 176 173 168 150 150 123 137 120 95 139 120 110
187 190 193 193 189 196 192 190 183 182 178 174 173 166 161 159 169 153 137 153 154 133
200 199 185 166 198 203 196 193 186 183 178 176 176 169 170 166 168 165 143 156 174 154
214 198 181 189 201 202 186 200 196 186 179 181 181 178 175 179 175 180 164 162 174 190
202 194 193 206 203 188 202 199 202 183 188 188 185 179 181 181 182 188 186 190 170 186
202 194 199 203 201 194 197 203 195 188 193 197 188 189 193 189 184 189 186 187 187 189
213 214 209 204 201 198 199 200 198 198 203 199 191 195 185 187 187 190 188 188 192 190
221 214 201 203 209 206 198 203 200 193 203 203 193 192 189 186 182 188 188 186 186 202
198 196 203 207 210 206 204 200 193 202 203 198 204 203 192 186 186 181 186 186 185 188
222 216 215 216 209 211 207 194 210 210 199 199 207 164 183 209 184 198 194 186 181 185
229 238 229 222 217 215 204 211 215 214 206 201 191 172 173 186 197 192 196 190 187 187
238 265 241 237 239 231 212 214 218 216 215 208 194 195 175 183 194 193 192 177 179 154
274 267 272 266 255 225 222 231 211 220 216 215 203 187 186 191 189 182 181 168 169 172
327 295 284 283 261 259 250 246 239 236 224 218 210 192 186 190 185 193 176 183 180 202